[Date Prev][Date Next][Thread Prev][Thread Next] - [Date Index][Thread Index][Author Index]

2 Line ISS Keps 1-8



ISS
1 25544U 98067A   04008.20171113  .00017436  00000-0  16872-3 0  9862
2 25544  51.6304  64.8774 0006829 356.1352 123.3982 15.66494895293062


----
Via the sarex mailing list at AMSAT.ORG courtesy of AMSAT-NA.
To unsubscribe, send "unsubscribe sarex" to Majordomo@amsat.org



AMSAT Top AMSAT Home